Dewpoint
35 35 33 31 31 30 29 27 26 20 21 22 22 23 24 24 25 25 24 27 27 27 28 30 29 30 30 30 32 33 34 36 34 37 38 40 40 40
33 33 31 33 31 31 27 28 26 25 22 21 20 21 22 20 23 24 24 25 26 27 29 29 29 30 30 31 31 34 34 36 36 35 35 37 40 41
33 32 32 31 30 28 27 24 22 21 19 19 20 21 20 21 21 23 23 22 24 25 27 27 29 30 31 32 34 35 35 36 36 37 36 38 40 41
30 30 29 28 27 25 22 19 19 18 19 17 18 18 19 19 20 21 20 21 22 25 26 26 28 28 31 32 32 34 36 36 37 37 37 38 38 42
30 29 29 27 24 22 19 18 18 17 19 18 17 18 18 19 19 21 22 21 24 24 22 23 27 28 27 27 30 34 36 36 38 37 38 37 37 40
28 27 25 22 19 18 17 16 17 18 19 18 18 18 18 18 20 20 22 22 20 18 20 22 24 25 25 26 29 32 37 37 37 36 36 36 36 39
25 22 21 22 25 20 17 18 19 19 19 18 18 18 17 18 18 21 22 19 18 19 19 23 20 23 25 25 27 30 35 36 36 35 36 36 38 39
23 22 20 22 25 26 24 22 20 18 18 18 18 16 16 15 20 18 18 17 17 20 20 20 22 21 22 24 27 31 31 36 36 36 36 36 38 38
24 20 19 21 22 19 20 19 18 18 18 19 16 16 15 15 16 18 19 20 19 20 22 20 21 21 22 23 27 29 32 33 35 35 36 35 38 37
23 21 21 20 20 19 18 17 17 18 18 16 18 17 17 19 22 23 25 25 23 22 22 20 20 21 23 25 28 30 32 33 36 35 35 35 36 37
24 23 22 20 22 22 19 18 17 17 17 20 20 22 22 23 24 25 22 22 19 20 22 24 21 22 23 25 26 31 32 34 35 34 35 34 36 36
24 23 24 20 24 22 21 20 17 16 17 18 18 18 20 21 23 23 23 21 21 19 23 24 22 21 20 25 25 24 28 32 33 34 35 35 36 36
25 23 23 24 23 24 24 21 19 19 20 21 18 18 18 20 21 21 23 23 22 21 23 27 25 22 22 22 24 24 27 31 31 32 35 34 34 36
24 24 24 25 25 26 24 25 25 24 18 16 16 17 17 17 18 20 23 23 24 24 24 26 27 23 20 19 20 24 27 29 31 33 33 34 33 37
24 23 24 25 26 25 26 26 23 20 15 9 15 15 16 18 20 21 21 22 23 25 23 30 29 26 24 23 21 24 25 26 31 32 32 32 32 32
23 24 22 24 20 21 21 23 22 20 19 15 12 13 16 17 17 19 19 20 22 21 23 25 26 28 25 25 23 23 26 24 28 32 32 32 32 32
23 19 18 18 20 21 20 20 20 18 16 12 11 12 14 16 17 18 19 20 15 18 19 21 24 29 25 24 19 23 24 25 26 29 31 31 31 32
24 20 19 18 19 19 17 17 16 15 16 15 11 12 11 12 14 17 19 17 17 18 19 21 20 19 22 22 26 23 22 25 27 28 30 29 29 31
25 24 22 18 18 18 18 18 18 16 15 15 13 9 8 12 11 14 15 16 16 17 19 20 20 17 17 8 22 29 25 24 24 26 25 27 28 29
26 22 20 19 18 18 19 19 19 14 13 13 11 3 -1 7 7 10 12 7 14 16 16 16 16 17 18 18 17 19 28 25 21 22 23 26 28 29
25 24 23 20 20 20 20 18 15 15 13 9 8 6 -2 7 6 8 7 9 8 16 14 12 14 19 22 24 16 17 22 28 28 25 27 24 23 22
25 25 25 24 22 22 21 20 17 15 16 11 7 4 -1 2 3 3 2 8 11 11 15 14 16 22 25 25 21 16 22 16 22 27 29 27 24 20
28 27 26 26 25 24 24 24 22 21 19 17 13 10 1 3 5 2 2 12 12 11 13 13 15 17 19 22 22 23 20 20 18 18 18 27 28 29
Lifted_Index
11 11 11 11 11 11 11 11 11 12 12 11 10 9 9 9 10 10 11 11 10 10 10 10 9 9 9 9 9 9 8 8 9 10 11 13 14 14
12 11 11 11 11 10 11 11 11 11 11 10 10 9 10 11 11 11 12 11 11 11 10 10 10 9 9 9 9 9 8 8 8 9 10 11 12 13
11 11 11 11 11 11 11 11 11 10 10 10 10 10 11 12 12 12 13 12 12 11 10 10 10 10 9 9 9 9 8 8 8 8 9 9 10 11
11 11 11 11 11 11 11 10 10 10 10 10 10 11 11 12 12 13 13 12 12 11 11 11 10 9 9 9 9 8 8 8 8 8 8 8 9 9
11 11 11 11 11 11 10 10 10 10 10 10 10 11 11 12 12 13 12 12 12 11 11 11 10 10 10 9 9 8 7 7 7 7 8 8 8 8
10 10 11 11 11 11 10 10 9 9 9 10 10 10 11 11 12 12 12 12 12 12 12 12 11 11 11 10 10 8 7 7 7 7 7 8 8 7
9 10 10 11 10 10 10 9 9 9 9 9 10 10 11 11 12 12 12 12 11 11 11 12 12 12 12 11 10 9 8 8 7 7 7 7 7 7
8 9 9 10 10 9 9 9 9 9 9 10 10 10 11 11 12 12 12 11 10 11 11 11 12 12 12 12 11 10 9 8 8 8 8 8 7 6
7 8 8 9 9 9 9 8 9 9 10 10 10 10 11 12 12 12 11 11 10 11 11 11 11 12 11 11 10 9 9 8 8 8 8 8 7 6
7 7 8 8 8 8 8 8 9 9 10 11 11 11 12 12 12 11 11 11 10 10 10 10 10 10 10 9 8 7 7 6 6 7 8 8 7 5
7 7 8 8 8 8 8 8 9 9 10 11 11 12 12 12 11 11 11 10 10 10 10 9 9 9 7 6 5 5 4 4 5 6 7 7 6 5
7 7 8 8 8 8 8 8 9 9 9 10 11 11 12 12 11 11 11 10 10 9 9 9 8 7 6 5 5 4 3 3 3 4 5 5 4 4
6 7 7 7 8 8 8 8 8 9 9 10 10 10 11 11 11 11 11 10 10 9 9 8 7 6 6 5 4 4 3 3 3 3 4 4 3 4
6 6 6 7 7 7 8 8 8 8 9 9 10 10 10 10 11 11 11 10 10 9 8 7 6 6 6 5 4 4 3 3 3 3 3 3 3 3
5 5 6 6 7 7 7 8 8 8 8 9 9 9 10 10 10 10 10 10 9 8 7 6 6 5 5 5 4 4 3 3 3 3 3 3 3 3
5 5 5 6 6 7 7 7 8 8 8 8 8 9 9 10 10 10 10 9 9 8 7 6 5 5 5 4 4 4 4 4 4 4 3 3 3 3
4 5 5 5 5 6 7 7 7 7 7 7 8 8 9 9 9 10 10 9 9 8 7 6 5 5 4 4 4 5 5 5 5 4 4 3 3 3
5 5 5 4 5 5 6 7 7 7 7 7 7 8 8 8 8 9 9 9 9 8 7 7 6 5 4 4 4 5 5 5 5 5 4 4 4 4
5 5 5 4 4 5 6 6 7 7 7 7 7 7 8 8 8 8 8 9 9 9 8 8 7 5 5 4 4 5 5 5 5 5 5 5 5 5
5 5 5 5 5 5 6 6 6 7 7 7 7 7 8 8 7 7 8 8 8 9 9 9 8 6 5 5 4 5 5 5 5 5 5 5 5 5
5 5 5 5 5 5 5 6 6 6 6 6 7 7 7 7 7 7 7 8 8 9 9 9 8 7 6 6 5 5 5 5 5 5 5 5 6 6
4 4 4 4 4 4 5 5 6 6 6 6 6 6 7 7 7 7 7 7 8 8 9 9 8 7 7 6 5 5 5 5 5 5 5 6 6 6
4 4 4 4 4 4 4 5 5 5 5 5 6 6 6 7 7 7 7 7 8 8 9 9 8 7 7 6 5 5 5 5 5 5 6 6 6 6